Linden, NJ

10:57 AM EDT on September 27, 2016 (GMT -0400)
Linden

Weather History for KLDJ - June, 2013

Change the Weather History Date:

Monday, June 24, 2013

  Actual Average (KEWR) Record (KEWR)
Temperature  
Mean Temperature 84 °F 75 °F  
Max Temperature 94 °F 84 °F 97 °F (1966)
Min Temperature 74 °F 66 °F 49 °F (1932)
Degree Days  
Heating Degree Days 0 0  
Month to date heating degree days 15  
Since 1 June heating degree days 15  
Since 1 July heating degree days 4870  
Cooling Degree Days 19 10  
Month to date cooling degree days 174  
Year to date cooling degree days 250  
Since 1 June cooling degree days 174  
Growing Degree Days 34 (Base 50)    
Moisture  
Dew Point 67 °F    
Average Humidity 63    
Maximum Humidity 92    
Minimum Humidity 34    
Precipitation  
Precipitation 0.00 in 0.12 in 1.32 in (1984)
Month to date precipitation 3.27  
Year to date precipitation 22.16  
Snow  
Snow 0.00 in 0.00 in 0.00 in (2002)
Month to date snowfall 0.0  
Since 1 July snowfall 28.5  
Snow Depth -    
Sea Level Pressure  
Sea Level Pressure 30.03 in    
Wind  
Wind Speed 6 mph (West)    
Max Wind Speed 13 mph    
Max Gust Speed 21 mph    
Visibility 10 miles    
Events Thunderstorm    
T = Trace of Precipitation, MM = Missing Value Source: NWS Daily Summary

Daily Weather History Graph

Daily Weather History Graph

Search for Another Location

Airport or City:

Trip Planner

Search our weather history database for the weather conditions in past years. The results will help you decide how hot, cold, wet, or windy it might be!

Date:

Astronomy

Jun. 24, 2013 Rise Set
Actual Time 5:27 AM EDT 8:31 PM EDT
Civil Twilight 4:53 AM EDT 9:05 PM EDT
Nautical Twilight 4:11 AM EDT 9:47 PM EDT
Astronomical Twilight 3:21 AM EDT 10:37 PM EDT
Moon 9:31 PM EDT (6/24) 6:52 AM EDT (6/24)
Length of Visible Light 16h 11m
Length of Day
15h 04m
Full, 98% of the Moon is Illuminated
Jun 24
Full
Jun 30
Last Quarter
Jul 8
New
Jul 15
First Quarter
Jul 22
Full

Hourly Weather History & Observations

Time (EDT) Temp. Heat Index Dew Point Humidity Pressure Visibility Wind Dir Wind Speed Gust Speed Precip Events Conditions
12:15 AM - - - N/A% - - North - - N/A   Unknown
12:35 AM - - - N/A% - - North - - N/A   Unknown
12:55 AM - - - N/A% - - North - - N/A   Unknown
1:15 AM - - - N/A% - - North - - N/A   Unknown
1:35 AM - - - N/A% - - North - - N/A   Unknown
1:55 AM - - - N/A% - - North - - N/A   Unknown
2:15 AM 75.2 °F - 72.7 °F 92% 30.06 in 10.0 mi WSW 5.8 mph - N/A   Unknown
2:35 AM 75.0 °F - 72.5 °F 92% 30.07 in 10.0 mi WSW 4.6 mph - N/A   Clear
2:55 AM 74.7 °F - 72.1 °F 92% 30.06 in 10.0 mi WSW 5.8 mph - N/A   Clear
3:15 AM 74.7 °F - 72.3 °F 92% 30.06 in 10.0 mi WSW 5.8 mph - N/A   Clear
3:35 AM 74.7 °F - 72.1 °F 92% 30.06 in 10.0 mi WSW 5.8 mph - N/A   Clear
3:55 AM 74.8 °F - 72.1 °F 91% 30.06 in 10.0 mi West 4.6 mph - N/A   Clear
4:15 AM 74.7 °F - 71.8 °F 91% 30.06 in 10.0 mi West 4.6 mph - N/A   Clear
4:35 AM 74.7 °F - 72.0 °F 91% 30.06 in 10.0 mi West 3.5 mph - N/A   Scattered Clouds
4:55 AM 74.3 °F - 71.8 °F 92% 30.05 in 10.0 mi WSW 3.5 mph - N/A   Scattered Clouds
5:15 AM 74.3 °F - 71.8 °F 92% 30.06 in 10.0 mi WSW 3.5 mph - N/A   Clear
5:35 AM 74.3 °F - 71.8 °F 92% 30.06 in 10.0 mi WSW 3.5 mph - N/A   Clear
5:55 AM 74.5 °F - 71.8 °F 91% 30.06 in 10.0 mi WSW 3.5 mph - N/A   Clear
6:15 AM 74.7 °F - 72.0 °F 91% 30.06 in 10.0 mi West 4.6 mph - N/A   Clear
6:35 AM 74.8 °F - 72.0 °F 91% 30.06 in 10.0 mi Calm Calm - N/A   Clear
6:55 AM 75.2 °F - 72.0 °F 90% 30.06 in 10.0 mi WSW 4.6 mph - N/A   Clear
7:15 AM 75.9 °F - 72.3 °F 89% 30.07 in 10.0 mi WSW 4.6 mph - N/A   Clear
7:35 AM 77.0 °F - 72.5 °F 86% 30.06 in 10.0 mi WSW 4.6 mph - N/A   Clear
7:55 AM 77.9 °F - 72.5 °F 83% 30.07 in 10.0 mi WSW 6.9 mph - N/A   Clear
8:15 AM 78.8 °F - 72.3 °F 80% 30.06 in 10.0 mi West 5.8 mph - N/A   Clear
8:35 AM 80.1 °F 83.8 °F 71.8 °F 76% 30.07 in 10.0 mi West 8.1 mph - N/A   Clear
8:55 AM 80.8 °F 84.7 °F 71.6 °F 73% 30.07 in 10.0 mi West 6.9 mph - N/A   Clear
9:15 AM 81.9 °F 86.4 °F 71.8 °F 71% 30.07 in 10.0 mi WNW 3.5 mph - N/A   Clear
9:35 AM 83.1 °F 88.4 °F 72.1 °F 69% 30.06 in 10.0 mi West 5.8 mph - N/A   Clear
9:55 AM 84.6 °F 90.7 °F 72.3 °F 67% 30.06 in 10.0 mi West 6.9 mph - N/A   Clear
10:15 AM 84.9 °F 90.7 °F 71.8 °F 65% 30.06 in 10.0 mi West 6.9 mph - N/A   Clear
10:35 AM 86.4 °F 92.6 °F 71.8 °F 62% 30.06 in 10.0 mi West 5.8 mph - N/A   Clear
10:55 AM 86.9 °F 93.3 °F 71.8 °F 61% 30.06 in 10.0 mi West 6.9 mph - N/A   Clear
11:15 AM 89.2 °F 95.9 °F 71.8 °F 56% 30.05 in 10.0 mi West 6.9 mph - N/A   Clear
11:35 AM 90.1 °F 96.3 °F 70.9 °F 53% 30.05 in 10.0 mi WNW 5.8 mph - N/A   Clear
11:55 AM 90.7 °F 95.9 °F 69.8 °F 50% 30.05 in 10.0 mi WNW 6.9 mph - N/A   Clear
12:15 PM 91.8 °F 97.0 °F 69.6 °F 48% 30.05 in 10.0 mi West 10.4 mph - N/A   Clear
12:35 PM 92.3 °F 97.6 °F 69.3 °F 47% 30.04 in 10.0 mi WSW 5.8 mph - N/A   Clear
12:55 PM 92.5 °F 96.9 °F 68.4 °F 45% 30.04 in 10.0 mi WSW 10.4 mph - N/A   Clear
1:15 PM 93.0 °F 96.4 °F 66.9 °F 42% 30.04 in 10.0 mi WSW 11.5 mph 16.1 mph N/A   Clear
1:35 PM 92.8 °F 95.6 °F 66.0 °F 41% 30.03 in 10.0 mi WSW 10.4 mph - N/A   Clear
1:55 PM 93.4 °F 93.9 °F 61.9 °F 35% 30.02 in 10.0 mi West 11.5 mph - N/A   Clear
2:15 PM 94.3 °F 94.9 °F 62.1 °F 34% 30.01 in 10.0 mi WNW 12.7 mph 18.4 mph N/A   Clear
2:35 PM 93.0 °F 94.6 °F 64.0 °F 38% 30.00 in 10.0 mi West 9.2 mph - N/A   Clear
2:55 PM 94.6 °F 96.4 °F 64.0 °F 36% 29.99 in 10.0 mi West 10.4 mph 18.4 mph N/A   Clear
3:15 PM 94.8 °F 97.1 °F 64.6 °F 37% 29.99 in 10.0 mi West 9.2 mph 19.6 mph N/A   Clear
3:35 PM 92.8 °F 93.9 °F 62.8 °F 37% 29.99 in 10.0 mi West 10.4 mph - N/A   Scattered Clouds
3:55 PM 91.8 °F 93.4 °F 64.2 °F 40% 29.99 in 10.0 mi WSW 5.8 mph 9.2 mph N/A   Clear
4:15 PM 91.4 °F 92.1 °F 62.8 °F 38% 29.99 in 10.0 mi West 9.2 mph - N/A   Clear
4:35 PM 90.5 °F 91.8 °F 63.9 °F 41% 29.97 in 10.0 mi WSW 5.8 mph - N/A   Clear
4:55 PM 85.5 °F 88.2 °F 67.3 °F 54% 29.98 in 10.0 mi WSW 6.9 mph 18.4 mph N/A   Clear
5:15 PM 84.6 °F 86.6 °F 65.8 °F 53% 29.97 in 10.0 mi WSW 5.8 mph - N/A   Clear
5:35 PM 85.5 °F 87.4 °F 65.3 °F 51% 29.97 in 10.0 mi SSW 4.6 mph - N/A   Clear
5:55 PM 85.3 °F 87.6 °F 66.4 °F 53% 29.96 in 10.0 mi WSW 4.6 mph - N/A   Clear
6:15 PM 86.5 °F 89.3 °F 67.1 °F 52% 29.98 in 10.0 mi WSW 11.5 mph 16.1 mph N/A   Clear
6:35 PM 86.0 °F 88.2 °F 66.0 °F 51% 29.98 in 10.0 mi SW 8.1 mph - N/A   Clear
6:55 PM 85.8 °F 87.6 °F 65.5 °F 50% 29.99 in 10.0 mi WSW 12.7 mph 18.4 mph N/A Thunderstorm Clear
7:15 PM 84.7 °F 87.4 °F 66.7 °F 55% 29.98 in 10.0 mi WSW 11.5 mph 19.6 mph N/A   Clear
7:35 PM 84.6 °F 85.2 °F 62.2 °F 47% 29.98 in 10.0 mi West 10.4 mph 20.7 mph N/A   Clear
7:55 PM 81.9 °F 81.8 °F 58.1 °F 44% 29.97 in 10.0 mi WNW 11.5 mph - N/A   Clear
8:15 PM 81.7 °F 81.6 °F 58.1 °F 44% 29.98 in 10.0 mi WNW 6.9 mph - N/A   Clear
8:35 PM 80.8 °F 81.2 °F 58.6 °F 47% 29.99 in 10.0 mi West 4.6 mph - N/A   Clear
8:55 PM 80.4 °F 81.0 °F 59.2 °F 48% 29.99 in 10.0 mi Calm Calm - N/A   Clear
9:15 PM 80.1 °F 80.8 °F 59.5 °F 49% 29.99 in 10.0 mi NNE 3.5 mph - N/A   Clear
9:35 PM 80.2 °F 80.9 °F 59.7 °F 49% 30.01 in 10.0 mi Calm Calm - N/A   Clear
9:55 PM 79.2 °F - 60.8 °F 53% 30.02 in 10.0 mi WSW 3.5 mph - N/A   Clear
10:15 PM 78.4 °F - 61.5 °F 56% 30.02 in 10.0 mi WSW 3.5 mph - N/A   Clear
10:35 PM 77.9 °F - 61.9 °F 58% 30.02 in 10.0 mi Calm Calm - N/A   Clear
10:55 PM 77.5 °F - 62.6 °F 60% 30.02 in 10.0 mi Calm Calm - N/A   Clear
11:15 PM 77.2 °F - 62.6 °F 61% 30.01 in 10.0 mi Calm Calm - N/A   Clear
11:35 PM 77.0 °F - 63.5 °F 63% 30.01 in 10.0 mi NW 3.5 mph - N/A   Clear
11:55 PM 77.2 °F - 63.5 °F 63% 30.01 in 10.0 mi WNW 4.6 mph - N/A   Clear